CAPE
52 55 81 69 65 68 23 30 50 50 38 69 69 76 33 5 0 1 0 0 29 16 62 140 5 96 430 103 19 0 29 11 271 19 16 238 28 0 0 0 0 0 0 0 0 0 0 0 0 0 0 0 0 0
74 83 58 54 44 51 28 50 59 48 30 48 62 37 2 17 0 0 0 0 25 16 13 133 268 241 338 48 56 3 62 10 116 175 229 12 147 0 0 0 0 0 0 0 0 0 0 0 0 0 0 0 0 0
59 61 53 34 32 36 41 61 83 81 79 92 70 36 9 3 0 0 7 64 54 14 1 46 129 48 59 189 45 15 170 258 466 382 80 158 14 0 0 0 0 0 0 0 0 0 0 0 0 0 0 0 0 0
66 47 36 34 41 50 62 64 41 53 68 34 23 11 4 0 1 0 32 16 28 3 31 133 180 53 51 295 478 546 543 672 696 308 4 0 0 24 0 2 1 0 0 0 0 0 0 0 0 0 0 0 0 0
27 15 18 37 57 66 59 49 40 52 41 20 22 16 10 23 14 20 35 3 25 8 44 36 31 77 50 187 467 624 517 530 238 0 0 10 0 78 0 0 0 0 0 0 0 0 0 0 0 0 0 0 0 0
37 49 31 39 29 20 15 14 31 26 13 17 21 48 26 3 9 28 30 0 3 0 7 13 2 73 94 169 253 513 330 298 486 46 94 1 0 0 0 0 0 0 0 0 0 0 0 0 0 0 0 0 0 0
20 13 20 7 3 0 4 6 12 3 4 18 10 1 9 4 14 26 13 1 0 2 45 36 8 7 54 47 5 69 205 125 126 56 243 0 0 0 0 0 0 0 0 0 0 0 0 0 0 0 0 0 0 0
1 10 16 11 13 14 6 0 2 9 6 4 0 4 0 0 17 50 3 0 1 61 50 41 34 44 18 63 9 0 249 0 0 0 0 0 0 0 0 0 0 0 0 0 0 0 0 0 0 0 0 0 0 0
2 4 4 1 1 3 7 2 1 4 2 1 0 0 1 30 100 58 0 0 8 7 30 0 0 8 0 0 0 0 0 0 0 0 0 0 0 0 0 0 0 0 0 0 0 0 0 0 0 0 0 0 0 0
0 0 0 0 0 0 0 0 0 0 0 0 0 67 18 20 0 0 3 0 0 0 0 0 0 0 0 0 1 0 0 0 0 0 0 0 0 0 0 0 0 0 0 0 0 0 0 0 0 0 0 0 0 0
0 0 0 0 0 0 0 0 0 0 0 5 1 0 0 0 0 0 0 0 0 0 0 0 0 0 0 0 0 0 0 0 0 0 0 0 0 0 0 0 0 0 0 0 0 0 0 0 0 0 0 0 0 0
0 0 0 0 0 0 0 0 0 0 5 3 0 0 0 0 0 0 0 0 0 0 0 0 0 0 0 0 0 0 0 0 0 0 0 0 0 0 0 0 0 0 0 0 0 0 0 0 0 0 0 0 0 0
0 0 0 0 0 0 0 0 0 0 0 0 0 0 0 0 0 0 0 0 0 0 0 0 0 0 0 0 0 0 1 0 0 0 0 0 0 0 0 0 0 0 0 0 0 0 0 0 0 0 0 0 0 0
0 0 0 0 0 0 0 0 0 0 0 0 0 0 0 0 0 0 0 0 0 0 1 0 0 0 0 0 0 0 0 0 0 0 0 0 0 0 0 0 0 0 0 0 0 0 0 0 0 0 0 0 0 0
0 0 0 0 0 0 0 0 0 0 0 0 0 0 0 0 0 0 0 0 0 0 0 1 0 0 0 0 0 0 1 0 0 0 0 0 0 0 0 0 0 0 0 0 0 0 0 0 0 0 0 0 0 0
0 0 0 0 0 0 0 0 0 0 0 0 0 0 0 0 0 0 0 0 0 0 0 0 0 0 0 0 0 0 0 0 0 0 0 0 0 0 0 0 0 0 0 0 0 0 0 0 0 0 0 0 0 0
0 0 0 0 0 0 0 0 0 1 0 0 0 0 0 1 1 0 0 0 0 0 0 0 0 0 0 0 0 0 0 0 0 0 0 0 0 0 0 0 0 0 0 0 0 0 0 0 0 0 0 0 0 0
0 0 0 0 0 0 0 0 0 0 3 0 0 0 0 0 0 0 1 0 0 1 1 0 1 0 0 0 0 1 0 0 0 0 0 1 1 0 1 2 1 0 0 0 0 0 0 0 0 0 0 0 0 0
0 0 0 0 0 0 0 0 0 0 0 0 0 1 0 0 1 0 0 0 3 0 0 3 0 0 1 1 0 0 0 0 0 0 0 0 0 0 0 0 0 0 0 0 0 0 0 0 0 0 0 0 0 0
0 0 0 0 0 0 0 0 0 0 1 0 2 4 3 4 0 0 0 0 0 0 0 0 1 3 3 2 0 1 1 0 0 0 0 0 0 0 0 0 0 0 0 0 0 0 0 0 0 0 0 0 0 0
0 0 0 0 0 0 0 0 0 0 0 0 0 0 1 0 0 0 0 0 0 1 7 2 3 1 3 2 1 2 1 1 1 0 0 1 1 0 1 0 1 0 0 0 1 1 0 0 0 0 0 0 0 0
0 0 0 0 0 0 0 0 0 0 0 2 0 0 0 0 5 0 0 0 4 5 9 3 5 3 4 5 3 2 4 2 1 0 0 0 0 0 0 0 0 0 0 0 0 0 0 0 0 0 0 0 0 0
0 0 0 0 0 0 0 0 0 0 0 1 1 0 6 1 0 0 0 8 9 5 1 5 3 0 1 0 0 1 0 2 1 1 0 0 0 0 0 0 0 0 0 1 1 0 0 0 0 0 0 0 0 0
0 0 0 0 0 0 0 0 1 0 0 0 2 1 1 0 0 0 4 12 4 0 1 2 4 2 0 0 0 1 3 0 0 0 0 0 0 0 0 0 0 0 0 0 0 0 0 0 0 0 0 0 0 0
0 0 0 0 0 0 0 0 3 2 3 2 6 2 0 0 1 1 2 3 0 0 0 0 0 0 0 0 0 0 0 0 0 0 0 0 0 0 0 0 0 0 0 0 0 0 0 0 0 0 0 0 0 0
0 1 0 0 0 0 1 2 2 2 4 3 0 0 1 11 0 0 1 1 0 0 0 0 0 0 0 0 0 0 0 0 0 0 0 0 0 0 0 0 0 0 0 0 0 0 0 0 0 0 0 0 0 0
0 1 0 0 0 2 3 5 7 1 0 2 7 8 1 0 0 1 0 0 1 0 0 0 0 0 0 1 0 0 0 0 0 0 0 0 0 0 0 0 0 0 0 0 0 0 0 0 0 0 0 0 0 0
0 0 0 1 0 0 4 6 5 0 0 0 0 0 0 0 0 0 1 3 0 0 0 0 0 0 0 0 0 0 0 0 0 0 0 0 0 0 0 0 0 0 0 0 0 0 0 0 0 0 0 0 0 0
0 0 0 0 0 0 1 5 6 2 0 0 0 0 0 1 0 0 0 1 0 0 0 0 0 0 0 0 0 0 0 0 0 0 0 0 0 0 0 0 0 0 0 0 0 1 1 1 1 0 0 0 0 0
0 0 1 1 2 5 4 2 1 0 0 1 0 1 1 1 0 0 0 0 0 0 0 0 0 0 0 0 0 0 0 0 0 0 0 0 0 0 0 0 0 0 0 0 0 0 0 0 0 0 0 0 0 0
1 0 0 0 0 1 0 5 0 4 1 0 0 0 0 0 0 0 0 0 0 0 0 0 0 0 0 0 0 0 0 0 0 0 0 0 0 0 0 0 0 0 0 0 0 0 0 0 0 0 0 0 0 0
0 1 0 0 1 0 1 0 0 1 0 2 0 0 0 0 0 0 0 0 0 0 0 0 0 0 0 0 0 0 0 0 0 0 0 0 0 0 0 0 0 0 0 0 0 0 0 0 0 0 0 0 0 0
2 0 0 0 2 1 0 0 8 0 0 0 0 1 0 0 0 0 0 0 0 0 0 0 0 1 0 0 0 0 0 0 0 0 0 0 0 0 0 0 0 0 0 0 0 0 0 0 0 0 0 0 0 0
CIN
-0 -0 -0 -0 -0 -0 -0 -0 -8 -13 -27 -13 -5 -4 -39 -23 -0 -0 -0 -0 -0 -0 -118 -42 -37 -24 -35 -118 -96 -3 -154 -99 -133 -96 -63 -47 -44 -0 -0 -0 -0 -0 -0 -0 -0 -0 -0 -0 -0 -0 -0 -0 -0 -0
-0 -0 -0 -0 -0 -0 -0 -0 -1 -1 -1 -20 -6 -40 -29 -37 -0 -0 -0 -0 -0 -0 -34 -172 -150 -224 -41 -149 -165 -188 -105 -121 -159 -132 -131 -16 -58 -0 -0 -0 -0 -0 -0 -0 -0 -0 -0 -0 -0 -0 -0 -0 -0 -0
-0 -0 -0 -0 -1 -2 -2 -2 -2 -22 -16 -7 -15 -23 -26 -22 -0 -0 -3 -3 -0 -0 -0 -25 -130 -294 -293 -201 -267 -137 -109 -79 -114 -256 -326 -180 -11 -0 -0 -0 -0 -0 -0 -0 -0 -0 -0 -0 -0 -0 -0 -0 -0 -0
-0 -0 -6 -9 -15 -7 -2 -2 -4 -2 -12 -12 -37 -22 -5 -0 -0 -0 -0 -5 -0 -0 -7 -14 -111 -221 -239 -156 -143 -112 -108 -140 -191 -299 -245 -0 -0 -220 -0 -44 -49 -0 -0 -0 -0 -0 -0 -0 -0 -0 -0 -0 -0 -0
-15 -18 -9 -11 -9 -12 -21 -27 -27 -10 -12 -4 -4 -4 -14 -0 -0 -0 -0 -2 -0 -0 -0 -117 -115 -184 -195 -166 -118 -135 -121 -141 -221 -0 -0 -80 -0 -165 -0 -0 -0 -0 -0 -0 -0 -0 -0 -0 -0 -0 -0 -0 -0 -0
-12 -6 -8 -9 -20 -12 -12 -21 -19 -10 -15 -18 -0 -0 -0 -0 -0 -3 -1 -0 -0 -0 -0 -42 -26 -107 -133 -150 -136 -110 -134 -131 -136 -248 -52 -2 -0 -0 -0 -0 -0 -0 -0 -0 -0 -0 -0 -0 -0 -0 -0 -0 -0 -0
-0 -1 -8 -5 -2 -0 -36 -19 -24 -60 -26 -13 -0 -0 -0 -0 -15 -5 -0 -0 -0 -0 -8 -35 -125 -194 -156 -207 -280 -160 -114 -155 -138 -174 -108 -0 -0 -0 -0 -0 -0 -0 -0 -0 -0 -0 -0 -0 -0 -0 -0 -0 -0 -0
-0 -0 -0 -0 -0 -0 -1 -0 -2 -6 -1 -3 -0 -0 -0 -0 -28 -0 -2 -0 -0 -120 -206 -82 -49 -83 -83 -83 -65 -0 -53 -0 -0 -0 -0 -0 -0 -0 -0 -0 -0 -0 -0 -0 -0 -0 -0 -0 -0 -0 -0 -0 -0 -0
-0 -0 -0 -0 -0 -0 -0 -0 -0 -0 -0 -0 -0 -0 -0 -1 -0 -5 -0 -0 -207 -226 -114 -0 -1 -8 -0 -0 -0 -0 -0 -0 -0 -0 -0 -0 -0 -0 -0 -0 -0 -0 -0 -0 -0 -0 -0 -0 -0 -0 -0 -0 -0 -0
-0 -0 -0 -0 -0 -0 -0 -0 -0 -0 -0 -0 -0 -5 -8 -21 -0 -0 -108 -2 -0 -0 -0 -0 -0 -0 -0 -0 -0 -0 -0 -0 -0 -0 -0 -0 -0 -0 -0 -0 -0 -0 -0 -0 -0 -0 -0 -0 -0 -0 -0 -0 -0 -0
-0 -0 -0 -0 -0 -0 -0 -0 -0 -0 -0 -15 -8 -0 -0 -0 -0 -0 -0 -0 -0 -0 -0 -0 -0 -0 -0 -0 -0 -0 -0 -0 -0 -0 -0 -1 -0 -0 -0 -0 -0 -0 -0 -0 -0 -0 -0 -0 -0 -0 -0 -0 -0 -0
-0 -0 -0 -0 -0 -0 -0 -0 -0 -0 -15 -47 -9 -0 -0 -0 -0 -0 -0 -0 -0 -0 -0 -0 -0 -0 -0 -0 -0 -0 -0 -0 -0 -0 -0 -0 -0 -0 -0 -0 -0 -0 -0 -0 -0 -0 -0 -0 -0 -0 -0 -0 -0 -0
-0 -0 -0 -0 -0 -0 -0 -0 -0 -0 -0 -0 -0 -0 -0 -0 -0 -0 -0 -0 -0 -0 -0 -0 -0 -0 -0 -0 -0 -0 -0 -0 -0 -0 -0 -0 -0 -0 -0 -0 -0 -0 -0 -0 -0 -0 -0 -0 -0 -0 -0 -0 -0 -0
-0 -0 -0 -0 -0 -0 -0 -0 -0 -0 -0 -0 -0 -0 -0 -0 -0 -0 -0 -0 -0 -0 -0 -0 -0 -0 -0 -0 -0 -0 -0 -0 -0 -1 -0 -0 -0 -0 -0 -0 -0 -0 -0 -0 -0 -0 -0 -0 -0 -0 -0 -0 -0 -0
-0 -0 -0 -0 -0 -0 -0 -0 -0 -0 -0 -0 -0 -0 -0 -0 -0 -0 -0 -0 -0 -0 -0 -0 -0 -0 -0 -0 -0 -0 -0 -0 -0 -0 -0 -0 -0 -0 -0 -0 -0 -0 -0 -0 -0 -0 -0 -0 -0 -0 -0 -0 -0 -0
-0 -0 -0 -0 -0 -0 -0 -0 -0 -0 -0 -0 -0 -0 -0 -0 -0 -0 -0 -0 -0 -0 -0 -0 -0 -0 -0 -0 -0 -0 -0 -0 -0 -0 -0 -0 -0 -0 -0 -0 -0 -0 -0 -0 -0 -0 -0 -0 -0 -0 -0 -0 -0 -0
-0 -0 -0 -0 -0 -0 -0 -0 -0 -0 -0 -0 -0 -0 -0 -0 -0 -0 -0 -0 -0 -0 -0 -0 -0 -0 -0 -0 -0 -0 -0 -0 -0 -0 -0 -0 -0 -0 -0 -0 -0 -0 -0 -0 -0 -0 -0 -0 -0 -0 -0 -0 -0 -0
-0 -0 -0 -0 -0 -0 -0 -0 -0 -0 -0 -0 -0 -0 -0 -0 -0 -0 -0 -0 -0 -0 -0 -0 -0 -0 -0 -0 -0 -0 -0 -0 -0 -0 -0 -0 -0 -0 -0 -0 -0 -0 -0 -0 -0 -0 -0 -0 -0 -0 -0 -0 -0 -0
-0 -0 -0 -0 -0 -0 -0 -0 -0 -0 -0 -0 -0 -0 -0 -0 -0 -0 -0 -0 -5 -0 -0 -0 -0 -0 -0 -0 -0 -0 -0 -0 -0 -0 -0 -0 -0 -0 -0 -0 -0 -0 -0 -0 -0 -0 -0 -0 -0 -0 -0 -0 -0 -0
-0 -0 -0 -0 -0 -0 -0 -0 -0 -0 -0 -0 -0 -1 -0 -0 -0 -0 -0 -0 -0 -0 -0 -0 -0 -0 -0 -0 -0 -0 -0 -0 -0 -0 -0 -0 -0 -0 -0 -0 -0 -0 -0 -0 -0 -0 -0 -0 -0 -0 -0 -0 -0 -0
-0 -0 -0 -0 -0 -0 -0 -0 -0 -0 -0 -2 -0 -0 -5 -0 -0 -0 -0 -0 -0 -2 -0 -0 -0 -0 -0 -0 -0 -0 -0 -0 -0 -0 -0 -0 -0 -0 -0 -0 -0 -0 -0 -0 -0 -0 -0 -0 -0 -0 -0 -0 -0 -0
-0 -0 -0 -0 -0 -0 -0 -0 -0 -1 -2 -6 -0 -0 -0 -0 -1 -1 -0 -0 -0 -0 -0 -0 -0 -0 -0 -0 -0 -0 -0 -0 -0 -0 -0 -0 -0 -0 -0 -0 -0 -0 -0 -0 -0 -0 -0 -0 -0 -0 -0 -0 -0 -0
-0 -0 -0 -0 -0 -0 -0 -0 -0 -0 -0 -1 -0 -0 -3 -2 -0 -1 -0 -0 -0 -0 -0 -0 -0 -0 -0 -0 -0 -0 -0 -0 -0 -0 -0 -0 -0 -0 -0 -0 -0 -0 -0 -0 -0 -0 -0 -0 -0 -0 -0 -0 -0 -0
-0 -0 -0 -0 -0 -0 -0 -0 -2 -1 -0 -3 -0 -2 -2 -0 -1 -0 -0 -0 -0 -0 -0 -0 -0 -0 -0 -0 -0 -0 -0 -0 -0 -0 -0 -0 -0 -0 -0 -0 -0 -0 -0 -0 -0 -0 -0 -0 -0 -0 -0 -0 -0 -0
-0 -0 -0 -0 -0 -0 -1 -0 -2 -2 -7 -10 -1 -2 -4 -4 -1 -1 -0 -0 -0 -0 -0 -0 -0 -0 -0 -0 -0 -0 -0 -0 -0 -0 -0 -0 -0 -0 -0 -0 -0 -0 -0 -0 -0 -0 -0 -0 -0 -0 -0 -0 -0 -0
-0 -3 -0 -0 -0 -1 -2 -1 -3 -5 -6 -3 -2 -0 -20 -2 -0 -0 -0 -0 -0 -0 -0 -0 -0 -0 -0 -0 -0 -0 -0 -0 -0 -0 -0 -0 -0 -0 -0 -0 -0 -0 -0 -0 -0 -0 -0 -0 -0 -0 -0 -0 -0 -0
-0 -1 -4 -0 -5 -3 -6 -8 -5 -8 -0 -2 -3 -5 -2 -0 -0 -0 -0 -0 -0 -0 -0 -0 -0 -0 -0 -0 -0 -0 -0 -0 -0 -0 -0 -0 -0 -0 -0 -0 -0 -0 -0 -0 -0 -0 -0 -0 -0 -0 -0 -0 -0 -0
-0 -1 -2 -4 -3 -2 -4 -4 -4 -0 -0 -0 -0 -0 -0 -0 -0 -0 -0 -0 -0 -0 -0 -0 -0 -0 -0 -0 -0 -0 -0 -0 -0 -0 -0 -0 -0 -0 -0 -0 -0 -0 -0 -0 -0 -0 -0 -0 -0 -0 -0 -0 -0 -0
-0 -1 -0 -0 -0 -2 -3 -0 -0 -0 -0 -0 -0 -0 -0 -0 -0 -0 -1 -0 -0 -0 -0 -0 -0 -0 -0 -0 -0 -0 -0 -0 -0 -0 -0 -0 -0 -0 -0 -0 -0 -0 -0 -0 -0 -0 -0 -0 -0 -0 -0 -0 -0 -0
-0 -0 -0 -1 -3 -0 -0 -1 -0 -0 -0 -0 -0 -0 -0 -0 -0 -0 -0 -0 -0 -0 -0 -0 -0 -0 -0 -0 -0 -0 -0 -0 -0 -0 -0 -0 -0 -0 -0 -0 -0 -0 -0 -0 -0 -0 -0 -0 -0 -0 -0 -0 -0 -0
-3 -0 -0 -0 -0 -1 -2 -0 -0 -3 -3 -0 -0 -0 -0 -0 -0 -0 -0 -0 -0 -0 -0 -0 -0 -0 -0 -0 -0 -0 -0 -0 -0 -0 -0 -0 -0 -0 -0 -0 -0 -0 -0 -0 -0 -0 -0 -0 -0 -0 -0 -0 -0 -0
-0 -0 -0 -0 -0 -0 -4 -0 -0 -0 -0 -0 -0 -0 -0 -0 -0 -0 -0 -0 -0 -0 -0 -0 -0 -0 -0 -0 -0 -0 -0 -0 -0 -0 -0 -0 -0 -0 -0 -0 -0 -0 -0 -0 -0 -0 -0 -0 -0 -0 -0 -0 -0 -0
-1 -0 -0 -0 -3 -0 -0 -0 -2 -0 -0 -0 -0 -0 -0 -0 -0 -0 -0 -0 -0 -0 -0 -0 -0 -2 -0 -0 -0 -0 -0 -0 -0 -0 -0 -0 -0 -0 -0 -0 -0 -0 -0 -0 -0 -0 -0 -0 -0 -0 -0 -0 -0 -0
Wind_Speed
26 24 22 20 21 20 18 18 18 21 17 25 24 24 23 21 19 8 4 7 2 4 6 5 13 9 6 8 8 7 8 7 2 5 5 3 4 6 5 8 8 7 7 4 4 3 7 6 3 7 7 3 6 4
23 21 19 19 19 18 20 21 19 22 21 20 23 24 22 23 21 16 4 6 5 2 8 14 7 1 7 11 10 5 8 11 7 6 3 5 3 3 4 3 3 2 8 7 8 8 8 3 7 6 7 6 5 6
20 21 20 19 18 18 17 16 15 15 18 21 24 23 23 22 20 17 6 3 3 3 8 7 4 5 7 7 8 8 2 7 2 5 6 4 4 5 4 6 3 1 4 4 6 2 2 3 11 9 9 10 12 12
18 18 17 16 16 16 15 15 14 16 18 22 23 21 21 18 19 16 7 5 1 3 3 5 2 6 5 7 6 6 8 5 7 5 5 4 5 4 5 5 5 6 5 6 2 2 12 10 8 11 13 13 16 16
16 16 16 16 16 15 16 16 17 18 20 19 18 18 17 17 18 9 3 5 2 1 5 2 6 5 2 5 10 9 8 7 4 4 4 3 3 6 2 4 1 3 6 5 5 2 10 5 7 12 15 13 13 14
14 16 16 17 17 16 14 14 15 16 16 19 21 19 20 16 15 5 1 7 10 4 5 4 3 5 3 7 9 7 5 3 4 5 2 2 2 6 5 3 1 6 9 4 5 9 15 13 14 14 16 13 13 14
11 11 11 10 14 12 13 15 16 16 17 17 20 20 19 22 9 6 4 2 7 8 6 3 4 5 6 7 5 5 4 3 4 3 3 4 2 5 3 4 6 7 10 9 7 13 10 6 10 13 15 13 14 13
19 17 16 16 18 19 20 17 19 18 21 20 21 22 19 15 11 4 10 12 7 3 5 5 2 5 6 3 2 3 3 3 6 2 3 3 3 3 3 5 8 9 10 9 13 13 16 15 14 12 12 11 12 10
18 19 17 17 20 21 21 24 25 24 23 23 23 24 9 3 3 4 10 11 1 6 5 4 4 3 4 3 2 5 4 4 2 2 1 5 2 2 2 10 7 8 5 12 15 16 14 14 13 13 11 9 10 8
22 20 19 17 18 19 19 21 23 25 26 26 12 4 5 7 8 10 2 6 7 4 5 3 1 1 2 1 2 3 2 3 2 3 2 4 2 4 6 7 6 5 12 15 16 10 11 12 11 11 12 9 9 10
28 25 23 23 19 18 19 19 21 20 15 2 3 4 0 5 4 6 5 5 2 5 3 2 4 3 2 4 3 1 2 1 4 4 5 1 1 4 6 7 7 10 11 10 13 10 11 13 13 12 11 10 9 9
30 29 27 25 22 22 21 22 23 6 2 3 8 4 5 6 6 8 3 2 4 3 1 2 3 2 2 2 4 1 3 2 3 2 4 3 1 10 9 6 7 10 13 14 15 16 15 13 12 12 9 9 9 10
28 28 28 27 26 24 23 25 16 13 5 4 7 7 5 5 7 4 1 2 4 4 3 3 3 2 4 4 3 3 4 1 2 2 4 1 7 7 8 7 13 15 16 17 16 15 15 13 12 11 9 6 9 8
26 28 28 25 25 22 18 13 3 3 7 7 6 7 5 4 5 4 4 3 2 2 3 4 3 2 1 4 1 5 1 2 2 4 4 3 7 6 6 9 14 13 13 13 12 12 13 12 10 8 8 6 7 7
24 26 24 24 17 17 17 18 15 7 7 7 6 6 4 1 2 1 1 2 3 2 2 3 2 3 2 3 3 4 2 2 1 2 1 4 6 6 10 11 12 12 11 10 10 10 10 10 9 9 6 6 7 6
8 16 14 19 14 17 14 13 10 5 6 6 8 4 3 3 4 4 4 2 1 1 1 2 3 3 4 2 2 3 4 2 2 2 1 5 5 8 10 10 9 10 10 9 9 9 9 8 8 9 7 6 5 5
13 6 14 10 7 16 15 8 7 10 6 6 4 3 3 3 3 3 3 4 3 4 3 3 4 1 1 3 4 4 3 2 1 2 3 5 9 11 10 7 10 11 10 10 9 8 7 7 8 6 6 5 5 4
6 5 12 8 4 7 4 6 6 6 7 4 4 4 3 2 2 3 3 2 1 2 1 2 1 5 5 4 3 3 3 2 3 3 3 5 8 9 8 9 9 10 10 9 8 7 6 5 6 6 6 5 6 5
7 10 16 9 6 5 6 6 5 6 5 2 2 2 2 2 1 4 4 4 2 2 4 4 6 5 4 4 3 4 4 2 2 3 3 4 7 8 7 9 9 9 8 8 7 6 7 9 7 5 4 4 4 3
6 18 17 18 7 6 7 5 4 5 3 2 1 3 2 2 3 3 10 8 6 5 7 6 5 4 4 4 4 3 4 3 2 3 3 3 5 8 7 6 6 8 8 10 7 7 7 7 6 5 4 5 4 2
8 8 11 8 6 9 6 4 5 4 3 3 2 3 2 3 7 7 5 6 9 6 5 5 4 6 7 7 7 6 8 8 6 3 3 5 6 7 8 7 8 7 7 6 7 8 8 6 5 5 4 3 2 3
3 10 4 8 7 6 6 6 4 1 4 1 3 3 3 3 3 4 3 8 5 5 4 3 6 5 7 11 9 11 8 9 11 10 13 10 8 8 8 7 8 8 8 7 6 6 5 4 3 3 3 3 4 3
5 7 6 7 9 8 3 3 5 4 4 1 4 4 3 3 2 2 5 4 3 5 5 3 7 9 9 9 10 12 12 11 8 8 8 8 8 7 8 9 7 7 6 5 4 4 3 4 3 3 3 4 3 3
8 8 7 6 7 4 3 5 3 4 4 4 4 3 3 3 3 5 5 4 3 6 7 9 3 5 6 9 8 8 8 7 7 8 6 6 7 7 7 7 6 6 6 5 5 4 3 2 4 4 4 3 4 2
11 10 7 7 5 6 5 4 5 5 4 5 4 4 2 2 4 4 3 4 4 5 7 5 7 8 6 6 5 6 10 6 6 7 7 4 4 5 6 6 7 7 6 5 5 4 3 4 4 3 3 3 4 4
10 9 6 6 4 4 4 3 3 3 1 3 3 1 2 2 6 5 3 3 3 3 5 6 5 5 6 6 5 6 6 4 5 6 6 7 7 6 5 4 3 3 4 3 3 4 4 4 4 5 5 7 6 4
7 6 2 2 0 1 2 2 2 4 5 5 3 4 2 4 4 3 2 4 2 2 4 5 5 6 5 4 3 3 3 4 4 5 4 5 5 5 4 4 2 2 2 3 3 2 2 3 4 4 5 3 3 2
4 5 5 5 4 6 4 4 5 6 4 5 2 6 4 5 4 3 4 3 2 3 3 3 4 5 6 6 6 5 4 5 1 4 5 5 4 3 3 2 2 2 1 1 1 2 2 2 3 3 3 3 4 4
3 4 3 6 4 5 6 5 3 3 5 3 3 4 4 4 4 3 3 5 6 6 5 5 3 3 3 4 5 5 5 7 6 7 6 3 3 4 4 3 2 2 2 2 6 6 5 3 2 3 5 5 6 2
4 3 3 4 5 4 3 5 3 3 4 4 4 4 4 3 5 6 6 6 4 4 4 6 5 6 5 5 3 4 3 3 4 4 3 2 3 5 4 3 3 3 2 2 3 4 6 4 5 5 5 4 3 2
3 3 4 4 4 2 2 2 4 3 3 4 5 5 4 4 1 5 6 4 5 7 5 5 6 5 5 5 3 4 3 3 3 4 1 2 2 3 4 5 4 3 3 4 3 2 3 3 3 3 4 4 5 3
4 4 2 4 2 1 1 2 1 2 3 2 2 3 2 3 4 3 5 5 5 6 6 5 4 2 1 2 2 2 4 3 2 2 3 2 3 3 2 3 3 3 5 7 5 4 4 6 5 5 4 0 2 3
1 3 5 4 4 3 1 2 0 3 4 3 3 3 3 4 4 2 1 3 3 2 2 3 3 2 1 1 2 3 6 4 7 9 9 7 5 4 2 2 2 3 3 4 4 3 5 8 8 8 5 2 4 1
Wind_Direction
146 155 158 162 169 170 165 186 178 175 182 172 176 174 171 171 167 171 259 250 242 286 279 237 187 173 172 140 141 161 71 279 16 90 114 188 121 231 102 166 171 161 143 191 98 94 282 186 84 130 200 102 87 60
152 156 156 163 168 170 173 177 169 168 180 175 173 175 175 172 174 170 237 218 237 299 291 318 103 303 185 165 125 163 153 203 187 99 73 91 57 40 118 212 199 127 175 177 160 210 227 134 134 143 116 105 55 66
145 153 158 158 160 163 166 168 169 168 170 167 171 178 175 174 181 176 186 177 191 284 292 250 102 327 31 113 137 126 96 224 111 149 148 136 131 124 139 244 123 76 134 107 75 282 177 125 60 73 74 79 69 65
158 162 163 162 163 164 165 175 182 173 169 171 184 175 179 180 189 182 200 214 155 278 194 251 216 41 323 71 90 125 145 82 108 75 95 123 137 173 203 200 138 200 117 150 215 125 81 46 53 87 72 65 81 66
166 167 167 166 166 169 177 181 179 166 168 175 179 174 166 179 162 158 190 244 261 171 232 219 140 8 47 64 81 87 109 106 91 71 85 183 160 93 310 70 301 171 175 142 205 107 104 95 76 85 82 73 73 83
159 161 160 161 160 161 164 163 162 167 175 186 183 169 161 158 140 107 322 254 215 202 306 39 290 16 93 95 85 97 114 77 93 110 170 49 74 104 112 166 326 102 75 93 137 92 101 101 79 76 84 78 76 80
184 184 182 187 183 193 188 178 179 179 177 165 166 164 160 160 140 170 221 49 146 141 218 26 353 347 11 54 27 24 36 61 97 90 65 130 74 82 109 144 155 99 100 87 78 114 104 137 113 99 93 89 86 83
205 201 201 207 210 211 191 192 182 167 150 152 159 153 151 131 66 225 259 242 221 174 80 95 332 12 2 12 39 333 63 50 16 98 18 97 19 64 84 110 108 104 100 86 72 83 105 106 101 99 103 104 95 92
152 175 163 158 162 164 162 154 155 152 146 140 136 125 102 210 192 212 241 250 93 102 92 81 121 187 15 27 14 15 52 63 353 93 109 82 347 105 137 130 110 117 128 110 97 96 104 105 110 106 110 103 99 93
85 101 118 129 134 132 128 126 130 137 140 139 143 162 171 181 235 226 65 38 25 14 48 96 54 157 71 119 11 76 31 145 106 246 56 82 98 74 54 77 86 103 115 117 107 110 113 112 120 111 101 93 94 92
70 78 88 106 115 119 123 128 129 123 133 221 65 55 231 302 39 37 47 69 45 40 20 200 141 164 315 115 136 96 150 38 97 247 117 167 139 152 94 70 52 55 107 111 114 121 124 118 116 110 94 91 89 86
59 66 74 83 99 124 133 135 145 157 348 146 110 104 18 26 41 69 41 340 82 163 330 114 56 45 337 106 96 26 111 60 135 181 104 168 122 114 108 99 88 96 99 99 102 101 100 99 107 103 100 99 96 98
63 61 59 62 68 91 120 159 185 136 157 55 50 56 10 336 47 65 103 81 69 21 7 41 51 51 2 39 60 90 68 42 70 121 182 173 125 118 128 118 102 100 97 95 91 92 92 90 85 100 100 95 105 93
53 57 57 61 67 58 49 49 5 39 59 62 58 54 38 36 27 20 6 35 17 360 358 65 49 91 320 45 101 91 219 113 116 150 217 127 137 133 120 118 118 106 102 99 100 100 102 102 98 89 90 93 101 101
54 49 49 24 36 66 68 65 47 54 56 60 38 54 51 88 47 317 244 66 359 297 23 59 45 78 11 85 58 115 110 139 151 168 75 127 130 122 117 110 111 108 106 106 111 112 113 113 109 104 97 99 97 98
54 53 16 358 28 31 28 48 37 54 56 53 42 42 2 46 21 356 19 25 331 271 27 67 90 66 38 97 76 52 131 73 55 35 44 117 105 102 112 111 113 113 112 118 124 123 123 124 121 120 118 112 115 117
52 44 327 350 43 61 50 64 37 46 46 43 32 8 12 44 13 357 358 337 337 31 38 28 70 118 274 72 59 22 44 23 57 55 58 96 107 115 118 124 115 120 123 122 123 125 117 116 126 124 111 138 140 117
49 356 3 0 37 43 49 50 80 71 62 36 60 19 20 18 333 331 304 295 78 117 82 78 77 45 29 40 40 14 38 19 47 81 97 117 111 122 126 126 124 122 120 120 117 120 136 126 109 96 87 70 102 78
44 24 20 37 77 89 68 34 54 82 56 36 11 350 25 335 306 338 348 340 57 119 80 50 44 31 45 30 339 352 355 26 59 46 75 85 104 120 121 108 108 108 115 126 123 105 91 88 89 79 67 66 78 57
36 21 9 24 47 75 66 28 59 77 69 104 348 16 55 13 313 346 30 16 21 50 44 45 38 17 28 10 342 341 345 355 46 76 67 80 80 99 104 112 108 107 92 71 73 86 93 79 68 63 42 68 68 358
26 348 358 15 49 55 72 46 48 115 130 87 254 78 47 360 32 28 40 6 43 32 65 31 66 59 37 25 13 26 28 29 30 6 82 74 57 68 64 59 73 73 87 80 79 70 62 61 39 25 41 42 359 326
351 344 54 27 64 51 53 6 107 137 73 119 36 54 46 20 7 32 73 39 56 19 28 29 48 51 49 39 29 25 31 44 45 49 49 55 56 52 54 60 69 70 64 61 69 81 63 70 49 17 22 348 6 5
8 32 42 38 64 51 325 3 55 20 70 6 39 48 28 36 347 72 75 59 65 11 4 47 66 63 63 41 37 42 36 50 56 55 56 61 61 57 60 53 56 68 70 58 52 73 67 70 25 13 30 20 6 4
34 50 40 47 55 69 32 15 19 47 32 23 59 67 36 5 342 65 71 66 34 10 10 29 66 86 71 52 42 32 33 41 53 53 54 68 73 67 66 67 57 46 36 57 43 38 43 27 27 32 24 4 349 8
63 4 47 21 6 51 57 39 19 40 35 15 60 32 15 343 63 66 61 96 37 23 6 16 57 40 58 68 45 31 16 39 56 61 28 39 103 105 92 81 66 45 30 39 23 17 349 18 18 12 342 351 335 315
68 22 38 25 28 42 29 69 47 38 42 76 59 281 303 56 59 55 54 73 46 27 12 8 35 70 60 43 47 31 6 19 78 70 46 37 37 47 58 73 88 43 2 65 59 23 1 353 359 359 347 333 330 27
59 52 4 296 235 115 100 26 49 66 50 32 4 338 337 71 70 84 96 30 70 47 34 22 32 50 61 67 64 48 24 21 57 88 96 73 62 65 87 101 81 254 312 61 60 56 344 337 348 339 322 326 342 324
49 27 30 353 34 15 53 38 33 27 27 347 329 36 62 40 56 39 38 44 110 106 86 73 62 61 61 53 45 31 11 344 330 73 89 85 54 56 55 78 152 259 269 121 258 271 280 258 259 277 289 281 279 285
39 333 56 23 70 44 26 20 74 61 351 331 25 55 76 63 358 23 12 49 39 57 54 37 42 88 78 66 57 45 34 25 52 48 39 16 7 354 350 1 25 13 360 358 342 342 323 308 301 261 258 267 251 254
20 325 76 47 47 55 37 10 75 72 29 43 104 105 78 73 35 22 25 24 37 59 52 54 44 52 40 33 54 60 20 50 64 100 86 338 269 289 318 335 342 326 345 354 316 311 333 347 326 335 343 335 344 2
316 354 41 65 78 47 47 75 114 109 68 66 40 76 118 130 106 34 14 359 48 30 66 64 52 34 44 27 28 30 357 333 58 108 141 253 317 330 359 344 337 330 323 295 288 294 295 308 292 290 301 317 337 45
41 32 59 54 106 141 62 26 140 144 129 86 98 97 138 107 72 24 357 11 36 43 38 38 41 29 48 341 18 134 200 286 8 311 306 279 283 280 293 312 313 322 349 348 335 330 329 323 300 291 279 347 316 304
105 57 33 40 26 39 355 21 98 68 44 63 40 63 69 75 88 157 83 32 87 74 15 345 337 323 220 173 20 358 34 11 350 350 2 338 308 302 316 308 320 323 329 309 306 312 318 316 325 324 314 314 307 291